Location: Sungai Buloh
(3.1000°N, 113.0000°E)
Time: 19:58:42
(UTC+00:00)

ARIANE 5 R/B - Pass Details

Date: 12 January 2026
Orbit: 533 x 17407 km, 6.8° (Epoch: 10 February)

Event Time Altitude Azimuth Distance (km) Brightness Sun altitude
Exits shadow 20:07:34 16° 140° (SE) 1,591 4.2 -35.6°
Drops below altitude 10° 20:08:22 10° 130° (SE) 1,856 4.7 -35.4°
Sets 20:10:18 0° 116° (ESE) 2,654 5.8 -34.9°
